Home   Weather   Allentown   Past weeks
Flag for USA

Past Weather in Allentown, Pennsylvania, USA — Yesterday and Last 2 Weeks

Now
36 °F

Mostly cloudy.


Feels Like: 30 °F
Forecast: 37 / 26 °F
Wind: 8 mph from West

Location: Lehigh Valley International Airport

Current Time: Jan 19, 2020 at 5:13:35 am

Latest Report: Jan 19, 2020 at 3:51 am


Visibility: 8 mi

Pressure: 29.71 "Hg

Humidity: 82%

Dew Point: 31 °F

Location of AllentownLocation

Past Weather in Allentown — Graph

°F

Allentown Temperature Yesterday

Maximum temperature yesterday: 31 °F (at 11:51 pm)
Minimum temperature yesterday: 19 °F (at 12:51 am)
Average temperature yesterday: 24 °F

High & Low Weather Summary for the Past Weeks

 TemperatureHumidityPressure
High68 °F (Jan 11, 7:51 pm)90% (Jan 4, 3:13 am)30.78 "Hg (Jan 4, 3:13 am)
Low19 °F (Jan 9, 7:51 am)30% (Jan 17, 1:51 pm)29.55 "Hg (Jan 4, 3:51 pm)
Average39 °F66%30.16 "Hg
* Reported Jan 4 1:34 am — Jan 19 1:51 am, Allentown. Weather by CustomWeather, © 2020

Note: Actual official high and low records may vary slightly from our data, if they occured in-between our weather recording intervals... More about our weather records

Allentown Weather History for the Previous 24 Hours

Scroll right to see more
 ConditionsComfort  
Time TempWeatherWind HumidityBarometerVisibility
1:51 am
Sun, Jan 19
35 °FFog.7 mph85%29.72 "Hg6 mi
12:51 am34 °FFog.5 mph85%29.72 "Hg5 mi
12:39 am32 °FLight freezing rain. Ice fog.3 mph85%29.72 "Hg5 mi
11:51 pm
Sat, Jan 18
31 °FLow clouds.5 mph82%29.75 "Hg5 mi
10:51 pm30 °FIce fog.No wind85%29.77 "Hg6 mi
9:51 pm28 °FLow clouds.3 mph85%29.82 "Hg7 mi
9:06 pm28 °FLow clouds.No wind81%29.85 "Hg7 mi
8:51 pm27 °FLight freezing rain. Ice fog.3 mph85%29.88 "Hg6 mi
8:10 pm27 °FLow clouds.5 mph85%29.90 "Hg8 mi
7:51 pm27 °FLight freezing rain. Low clouds.5 mph81%29.93 "Hg5 mi
6:51 pm27 °FLight snow. Overcast.5 mph81%29.97 "Hg4 mi
6:17 pm26 °FLight snow. Overcast.5 mph81%30.00 "Hg1 mi
5:57 pm26 °FLight snow. Mostly cloudy.5 mph81%30.02 "Hg1 mi
5:35 pm26 °FLight snow. Mostly cloudy.6 mph77%30.04 "Hg3 mi
4:51 pm26 °FLight snow. Mostly cloudy.8 mph74%30.09 "Hg5 mi
3:51 pm25 °FLight snow. Mostly cloudy.7 mph75%30.15 "Hg4 mi
3:28 pm25 °FLight snow. Mostly cloudy.8 mph78%30.15 "Hg3 mi
3:11 pm25 °FLight snow. Mostly cloudy.6 mph78%30.17 "Hg1 mi
3:04 pm25 °FLight snow. Ice fog.7 mph78%30.17 "Hg1 mi
2:24 pm25 °FSnow. Ice fog.8 mph75%30.20 "Hg1 mi
2:07 pm25 °FLight snow. Mostly cloudy.7 mph72%30.23 "Hg1 mi
1:59 pm25 °FLight snow. Mostly cloudy.5 mph69%30.24 "Hg2 mi
1:30 pm25 °FCloudy.No wind69%30.28 "Hg10 mi
1:03 pm23 °FLight snow. Mostly cloudy.3 mph74%30.31 "Hg3 mi
12:29 pm22 °FLight snow. Ice fog.5 mph75%30.34 "Hg1 mi
11:51 am21 °FSnow. Ice fog.6 mph78%30.40 "Hg1 mi
11:40 am21 °FSnow. Ice fog.3 mph78%30.41 "Hg1 mi
11:27 am21 °FHeavy snow. Ice fog.3 mph78%30.41 "Hg0 mi
10:51 am21 °FSnow. Ice fog.12 mph74%30.49 "Hg1 mi
10:44 am22 °FSnow. Ice fog.12 mph68%30.47 "Hg1 mi
10:34 am23 °FLight snow. Mostly cloudy.15 mph50%30.48 "Hg2 mi
9:51 am24 °FMostly cloudy.5 mph35%30.50 "Hg10 mi
8:51 am23 °FOvercast.No wind38%30.51 "Hg10 mi
7:51 am22 °FOvercast.6 mph40%30.53 "Hg10 mi
6:51 am22 °FOvercast.3 mph44%30.57 "Hg10 mi
5:51 am21 °FClear.No wind43%30.60 "Hg10 mi
Weather by CustomWeather, © 2020

See weather overview

Advertising